TimeMST,TemperatureF,Dew PointF,Humidity,Sea Level PressureIn,VisibilityMPH,Wind Direction,Wind SpeedMPH,Gust SpeedMPH,PrecipitationIn,Events,Conditions,WindDirDegrees,DateUTC
12:53 AM,19.9,18.0,92,30.41,8.0,East,4.6,-,N/A,,Clear,100,2013-01-19 07:53:00
1:53 AM,19.0,17.1,92,30.43,10.0,SE,3.5,-,N/A,,Clear,130,2013-01-19 08:53:00
2:53 AM,17.1,15.1,92,30.44,10.0,SE,5.8,-,N/A,,Clear,130,2013-01-19 09:53:00
3:53 AM,18.0,16.0,92,30.44,10.0,Calm,Calm,-,N/A,,Clear,0,2013-01-19 10:53:00
4:53 AM,14.0,12.0,92,30.45,10.0,North,3.5,-,N/A,,Clear,360,2013-01-19 11:53:00
5:53 AM,14.0,12.0,92,30.47,10.0,Calm,Calm,-,N/A,,Clear,0,2013-01-19 12:53:00
6:53 AM,12.9,10.0,88,30.48,10.0,Calm,Calm,-,N/A,,Clear,0,2013-01-19 13:53:00
7:53 AM,10.9,9.0,92,30.48,8.0,Calm,Calm,-,N/A,,Clear,0,2013-01-19 14:53:00
8:53 AM,12.0,9.0,88,30.52,9.0,Calm,Calm,-,N/A,,Clear,0,2013-01-19 15:53:00
9:26 AM,12.2,10.4,92,30.37,1.8,Calm,Calm,-,N/A,,Clear,0,2013-01-19 16:26:00
9:33 AM,12.2,10.4,92,30.37,10.0,Calm,Calm,-,N/A,,Clear,0,2013-01-19 16:33:00
9:53 AM,15.1,12.9,91,30.53,10.0,Calm,Calm,-,N/A,,Clear,0,2013-01-19 16:53:00
10:53 AM,15.1,14.0,95,30.54,9.0,WSW,4.6,-,N/A,,Clear,240,2013-01-19 17:53:00
11:53 AM,23.0,19.0,85,30.51,9.0,Calm,Calm,-,N/A,,Clear,0,2013-01-19 18:53:00
12:53 PM,23.0,19.0,85,30.47,10.0,Calm,Calm,-,N/A,,Clear,0,2013-01-19 19:53:00
1:53 PM,27.0,19.9,75,30.44,10.0,Calm,Calm,-,N/A,,Clear,0,2013-01-19 20:53:00
2:53 PM,28.9,21.0,72,30.42,9.0,Calm,Calm,-,N/A,,Clear,0,2013-01-19 21:53:00
3:53 PM,26.1,19.9,78,30.42,8.0,Calm,Calm,-,N/A,,Clear,0,2013-01-19 22:53:00
4:53 PM,27.0,19.9,75,30.42,8.0,WNW,3.5,-,N/A,,Clear,290,2013-01-19 23:53:00
5:53 PM,21.9,17.1,82,30.43,10.0,Calm,Calm,-,N/A,,Clear,0,2013-01-20 00:53:00
6:53 PM,19.0,16.0,88,30.45,9.0,Calm,Calm,-,N/A,,Clear,0,2013-01-20 01:53:00
7:53 PM,19.9,17.1,89,30.46,7.0,Calm,Calm,-,N/A,,Clear,0,2013-01-20 02:53:00
8:53 PM,19.0,16.0,88,30.47,8.0,Calm,Calm,-,N/A,,Clear,0,2013-01-20 03:53:00
9:53 PM,21.0,18.0,88,30.48,7.0,Calm,Calm,-,N/A,,Clear,0,2013-01-20 04:53:00
10:53 PM,19.0,15.1,85,30.50,10.0,Calm,Calm,-,N/A,,Clear,0,2013-01-20 05:53:00
11:53 PM,18.0,16.0,92,30.49,7.0,Calm,Calm,-,N/A,,Clear,0,2013-01-20 06:53:00